Starlink 32156

operational
NORAD ID: 60278 Int'l Des: 2024-132 Owner: SPXS Country: US Constellation: starlink
LEOCIRCULAR

Starlink 32156について

説明を読み込み中...

リアルタイム位置

3D地球を読み込み中...

次回通過

高度履歴

Altitude vs Time

uPlot chart will show altitude changes over time

軌道要素

1 60278U 24132A 25261.07584885 .00000651 00000-0 34090-4 0 9998
2 60278 53.1595 134.1218 0001069 92.2741 267.8382 15.30197085 66359
Epoch: Sep 18, 2025 • Age: 10 hours

現在のステータス

高度 478.3 km
速度 7.63 km/s
衛星直下点 -10.82°S, 141.65°E
打ち上げ日 Jul 28, 2024
運用期間 1.1 years
タイプ internet

技術仕様

分類 Payload
質量 730.00 kg
乾燥質量 700.00 kg
総質量 730.00 kg
長さ 0.30 m
直径 4.10 m
スパン 29.00 m
形状 Box + pan
製造者 SPXS
バスタイプ Starlink V2M
フェーズステータス In Orbit
所有者/国 SPXS/US

大規模コンステレーション

Loading constellations...